Página principal
METAR-TAF:

METAR-TAF

Aeroportos :

Mackinac Island Airport

Mackinac Island, Michigan, Estados Unidos

latitude: 45-51-54N, longitude: 084-38-14W, altura: 226 m

Observação actual do tempo

O boletim foi feito há 20 minutos, às 21:55 UTC
Vento 10 kt de noroeste com rajadas de 15 kt
Temperatura 4°C
Humidade 60%
Pressão 1024 hPa
Visibilidade: 16.1 km
Nuvens fragmentadasa uma altura de 4300 ft

METAR: KMCD 232155Z AUTO 32010G15KT 10SM BKN043 04/M03 A3024 RMK AO2 T00411026

Hora: 18:15 (22:15 UTC)


TAF: em falta

Observações e previsões do tempo de mais de 4000 aeroportos (mensagens METAR e TAF).

As estações disponíveis são os pontos amarelos e vermelhos sobre o mapa.

Mova o rato sobre o mapa para ver o nome da estação.

Depois clique no ponto para visualizar as observações e previsões meteorológicas.

Para alterar o mapa : clique nos botões verdes com uma cruz preta para aumentar o zoom; no botão verde com uma pitada de zoom; ou nas setas verdes para mapas adjacentes.


METAR-TAF: